Regional Weather Roundup
Issued by NWS

Home | Current Version | Previous Version | Graphics & Text | Print | Product List | Glossary On
Versions: 1 2 3 4 5 6 7 8 9 10 11 12 13 14 15 16 17 18 19 20 21 22 23 24 25 26 27 28 29 30 31 32 33 34 35 36 37 38 39 40 41 42 43 44 45 46 47 48 49 50
000
ASUS45 KBOU 270207
RWRCO

WEATHER ROUNDUP FOR COLORADO
NATIONAL WEATHER SERVICE DENVER/BOULDER CO
700 PM MST MON JAN 26 2015

NOTE: "FAIR" INDICATES FEW OR NO CLOUDS BELOW 12000 FEET WITH NO
SIGNIFICANT WEATHER AND/OR OBSTRUCTIONS TO VISIBILITY.

COZ001>005-013-030-031-270300-
...NORTHWEST COLORADO...

CITY           SKY/WX    TMP DP  RH WIND       PRES   REMARKS
CRAIG          PTCLDY    25  21  85 CALM      30.34R
HAYDEN         CLEAR     36  23  60 E6        30.34S
MEEKER         PTCLDY    26  20  77 NE6       30.32S WCI  19
MOUNT WERNER   NOT AVBL
STEAMBOAT SPGS CLEAR     32  24  73 CALM      30.36R
WALDEN         PTCLDY    30  23  74 SE8       30.40R WCI  23
$$

COZ006>008-011-270300-
...WEST CENTRAL VALLEYS...

CITY           SKY/WX    TMP DP  RH WIND       PRES   REMARKS
GRAND JUNCTION CLEAR     38  26  62 NW3       30.26R
MONTROSE       PTCLDY    37  23  56 SE7       30.31R
EAGLE          CLEAR     34  27  75 VRB5      30.39R WCI  30
RIFLE          CLEAR     39  25  57 CALM      30.29R
DELTA          PTCLDY    43  25  49 SW5       30.29R
NUCLA          PTCLDY    43  23  45 E5        30.35R
$$

COZ017>023-064>068-270300-
...SOUTHWEST COLORADO...

CITY           SKY/WX    TMP DP  RH WIND       PRES   REMARKS
DURANGO        PTCLDY    40  28  62 N5        30.37R
CORTEZ         CLEAR     36  24  62 E9        30.33R
PAGOSA SPRINGS PTCLDY    39  24  54 CALM      30.42R
TELLURIDE      NOT AVBL
WOLF CREEK PAS NOT AVBL
$$

COZ009-010-012-014-032>034-037-058>063-270300-
...CENTRAL COLORADO...

CITY           SKY/WX    TMP DP  RH WIND       PRES   REMARKS
ASPEN          PTCLDY    34  22  61 SW9       30.37R WCI  27
BUENA VISTA    PTCLDY    40  22  47 CALM      30.38S
COPPER MTN     PTCLDY    41   5  22 SE8       30.56S
BERTHOUD PASS  FAIR      32  28  86 CALM      30.59S
COTTONWOOD PAS PTCLDY    48   9  20 W8        30.47R
GUNNISON       PTCLDY    18   9  68 CALM      30.47R
KREMMLING      CLEAR     21  16  79 CALM      30.44S
LEADVILLE      PTCLDY    25  14  63 NE3       30.45R
MONARCH PASS   PTCLDY    36  12  38 S7        30.66S
SALIDA         PTCLDY    44  21  40 SW12      30.44R
SUNLIGHT       CLEAR     37  14  38 CALM      30.51R
WILKERSON PASS PTCLDY    37  10  32 SW5       30.56R
$$

COZ069>075-270300-
...SAN LUIS VALLEY/SANGRE DE CRISTO MOUNTAINS...

CITY           SKY/WX    TMP DP  RH WIND       PRES   REMARKS
ALAMOSA        PTCLDY    28  17  63 W8        30.41R WCI  20
LA VETA PASS   NOT AVBL
SAGUACHE       PTCLDY    27  21  80 N3        30.43R
$$

COZ035-036-038>040-270300-
...NORTHERN COLORADO FRONT RANGE...

CITY           SKY/WX    TMP DP  RH WIND       PRES   REMARKS
DENVER INTL AP CLEAR     46  25  43 S14       30.21S
DMNS CITY PARK   N/A     56  20  24 SW5       30.21S
AURORA         CLEAR     48  25  40 S10       30.23S
FRONT RANGE AP NOT AVBL
ERIE MUNI ARPT CLEAR     46  23  40 S3        30.21R
BOULDER MUN AP CLEAR     57  23  26 SW6       30.21R
CENTENNIAL     CLEAR     49  25  39 S10       30.24S
BROOMFIELD     CLEAR     52  21  30 W8        30.23S
FORT COLLINS   CLEAR     55  23  28 S7        30.21R
LONGMONT       CLEAR     46  24  42 W6        30.23R
$$

COZ041-046-047-076>085-087-088-270300-
...PIKES PEAK/PALMER DIVIDE AND SOUTHERN FOOTHILLS...

CITY           SKY/WX    TMP DP  RH WIND       PRES   REMARKS
COLO. SPRINGS  PTCLDY    50  25  37 CALM      30.29R
A. F. ACADEMY  PTCLDY    37  25  61 N8        30.30R
ELLICOTT       PTCLDY   N/A N/A N/A SW6       30.28S
FALCON         PTCLDY    37  26  65 CALM      30.32S
FORT CARSON    PTCLDY    52  24  33 SW3       30.26R
LIMON          CLEAR     31  24  75 N3        30.24R
MONUMENT HILL  CLEAR     36  27  69 S8        30.31S
TRINIDAD       FAIR      44  30  57 W10       30.29R
$$

COZ042>045-048>051-090-091-270300-
...NORTHEAST COLORADO...

CITY           SKY/WX    TMP DP  RH WIND       PRES   REMARKS
GREELEY ARPT   CLEAR     48  27  43 CALM      30.17R
AKRON          CLEAR     47  28  47 SW10      30.17S
BURLINGTON     CLEAR     43  31  62 SW9       30.18S
WRAY           CLEAR     46  32  57 SW8       30.14S
STERLING       CLEAR     48  34  57 CALM      30.14R
HOLYOKE        CLEAR     41  30  65 W8        30.13S
FORT MORGAN    CLEAR     55  26  32 CALM      30.18S
$$

COZ086-089-092>099-270300-
...SOUTHEAST COLORADO...

CITY           SKY/WX    TMP DP  RH WIND       PRES   REMARKS
PUEBLO         CLEAR     43  30  60 NE3       30.22R
LA JUNTA       CLEAR     54  33  45 SW14      30.20R
LAMAR          CLEAR     37  32  82 SW8       30.18R
SPRINGFIELD      N/A     40  30  67 NW3       30.23R
$$



USA.gov is the U.S. government's official web portal to all federal, state and local government web resources and services.